,�O�C���x,�����t���O,�O�C���x,�����t���O,�󒲎����x,�����t���O,�󒲎����x,�����t���O,��󒲎����x,�����t���O,����,�����t���O
2004/11/1 0:00,15.5,0,88,0,22,0,65.3,0,21.2,0,20.3,0
2004/11/1 0:15,15.7,0,88,0,22.1,0,66.4,0,21.2,0,20.3,0
2004/11/1 0:30,15.8,0,89,0,22,0,65.6,0,21.1,0,20.3,0
2004/11/1 0:45,15.7,0,90,0,22,0,65.2,0,21.1,0,20.4,0
2004/11/1 1:00,15.8,0,90,0,21.9,0,65.4,0,21.1,0,20.3,0
2004/11/1 1:15,15.8,0,91,0,21.9,0,65.3,0,21,0,20.3,0
2004/11/1 1:30,16,0,92,0,21.8,0,65.4,0,21,0,20.3,0
2004/11/1 1:45,15.9,0,92,0,21.8,0,65.4,0,21,0,20.3,0
2004/11/1 2:00,15.8,0,91,0,21.7,0,65.2,0,20.9,0,20.3,0
2004/11/1 2:15,15.7,0,89,0,21.7,0,65.3,0,20.9,0,20.3,0
2004/11/1 2:30,15.3,0,91,0,21.6,0,65.3,0,20.9,0,20.3,0
2004/11/1 2:45,15.2,0,92,0,21.6,0,65.4,0,20.8,0,20.2,0
2004/11/1 3:00,15.2,0,91,0,21.6,0,65.5,0,20.8,0,20.3,0
2004/11/1 3:15,14.8,0,93,0,21.5,0,65.8,0,20.7,0,20.3,0
2004/11/1 3:30,15.2,0,94,0,21.4,0,65.9,0,20.7,0,20.3,0
2004/11/1 3:45,15.6,0,93,0,21.3,0,66.2,0,20.7,0,20.2,0
2004/11/1 4:00,15.7,0,90,0,21.3,0,66.5,0,20.6,0,20.1,0
2004/11/1 4:15,16.1,0,89,0,21.2,0,66.6,0,20.6,0,20.1,0
2004/11/1 4:30,16.4,0,88,0,21.2,0,66.9,0,20.5,0,20.1,0
2004/11/1 4:45,16.8,0,84,0,21.1,0,66.8,0,20.5,0,20.1,0
2004/11/1 5:00,16.7,0,83,0,21.1,0,66.9,0,20.5,0,20.1,0
2004/11/1 5:15,17.5,0,83,0,21,0,67.1,0,20.4,0,20.1,0
2004/11/1 5:30,18.9,0,79,0,21,0,67.3,0,20.4,0,20.1,0
2004/11/1 5:45,20,0,71,0,21,0,67.5,0,20.4,0,20,0
2004/11/1 6:00,20.7,0,68,0,20.9,0,67.6,0,20.4,0,20.1,0
2004/11/1 6:15,21.4,0,64,0,20.9,0,67.7,0,20.4,0,20.1,0
2004/11/1 6:30,20.6,0,67,0,20.9,0,67.8,0,20.4,0,20,0
2004/11/1 6:45,19.7,0,72,0,20.8,0,67.9,0,20.4,0,20,0
2004/11/1 7:00,19.5,0,71,0,20.8,0,68.3,0,20.4,0,20.2,0
2004/11/1 7:15,20.3,0,68,0,20.8,0,68.7,0,20.4,0,20.2,0
2004/11/1 7:30,21.1,0,61,0,20.4,0,69.2,0,20.3,0,20.2,0
2004/11/1 7:45,20.3,0,61,0,20.4,0,70.7,0,20.1,0,20.5,0
2004/11/1 8:00,21.7,0,59,0,20.5,0,72.2,0,19.7,0,20.5,0
2004/11/1 8:15,20.1,0,65,0,20.6,0,73.2,0,19.5,0,20.5,0
2004/11/1 8:30,19.1,0,76,0,20.7,0,73.5,0,19.3,0,20.5,0
2004/11/1 8:45,19.4,0,72,0,20.8,0,73.1,0,19.1,0,20.5,0
2004/11/1 9:00,19.8,0,69,0,20.8,0,72.3,0,18.8,0,20.3,0
2004/11/1 9:15,20.9,0,62,0,20.8,0,72.2,0,18.7,0,20.2,0
2004/11/1 9:30,20.5,0,57,0,20.8,0,72,0,18.6,0,20.3,0
2004/11/1 9:45,21.2,0,56,0,20.8,0,72.4,0,18.5,0,20.2,0
2004/11/1 10:00,21.7,0,55,0,20.9,0,72.6,0,18.5,0,20.2,0
2004/11/1 10:15,21.1,0,55,0,20.9,0,73.1,0,18.7,0,20.3,0
2004/11/1 10:30,20.8,0,57,0,21,0,72.5,0,18.9,0,20.3,0
2004/11/1 10:45,21.7,0,55,0,21,0,72.3,0,19.1,0,20.3,0
2004/11/1 11:00,21.1,0,57,0,21,0,72.6,0,19.4,0,20.3,0
2004/11/1 11:15,21.5,0,55,0,21,0,73.5,0,19.6,0,20.3,0
2004/11/1 11:30,21.3,0,56,0,21,0,72,0,19.7,0,20.3,0
2004/11/1 11:45,20.6,0,57,0,21.1,0,71.5,0,19.8,0,20.3,0
2004/11/1 12:00,20.1,0,59,0,21.1,0,70.6,0,19.8,0,20.3,0
2004/11/1 12:15,20.8,0,55,0,21.2,0,70,0,20,0,20.3,0
2004/11/1 12:30,20.8,0,54,0,21.2,0,70.6,0,20.1,0,20.3,0
2004/11/1 12:45,20.5,0,56,0,21.3,0,71.4,0,20.2,0,20.3,0
2004/11/1 13:00,20,0,58,0,21.3,0,71.4,0,20.4,0,20.3,0
2004/11/1 13:15,19.7,0,58,0,21.3,0,71.4,0,20.4,0,20.3,0
2004/11/1 13:30,19.5,0,60,0,21.5,0,70.4,0,20.3,0,20.3,0
2004/11/1 13:45,19.1,0,63,0,21.6,0,69.3,0,20.3,0,20.4,0
2004/11/1 14:00,18.6,0,66,0,21.7,0,68.3,0,20.3,0,20.5,0
2004/11/1 14:15,17.9,0,68,0,21.8,0,68.5,0,20.4,0,20.6,0
2004/11/1 14:30,17.8,0,70,0,21.8,0,68.4,0,20.4,0,20.6,0
2004/11/1 14:45,17.6,0,71,0,21.9,0,68.3,0,20.5,0,20.6,0
2004/11/1 15:00,17.4,0,72,0,22,0,68.5,0,20.5,0,20.6,0
2004/11/1 15:15,17.4,0,72,0,22.1,0,68.6,0,20.6,0,20.6,0
2004/11/1 15:30,17.6,0,72,0,22.2,0,68.6,0,20.6,0,20.6,0
2004/11/1 15:45,16.9,0,74,0,22.2,0,68.7,0,20.6,0,20.6,0
2004/11/1 16:00,16.7,0,75,0,22.2,0,68.6,0,20.7,0,20.6,0
2004/11/1 16:15,16.9,0,74,0,22.1,0,68.4,0,20.7,0,20.7,0
2004/11/1 16:30,16.9,0,74,0,22.2,0,68.6,0,20.7,0,20.7,0
2004/11/1 16:45,16.8,0,75,0,22.2,0,68.5,0,20.8,0,20.7,0
2004/11/1 17:00,17.1,0,74,0,22.2,0,69,0,20.8,0,20.7,0
2004/11/1 17:15,17.2,0,73,0,22.2,0,68.7,0,20.8,0,20.7,0
2004/11/1 17:30,17.2,0,73,0,22.2,0,68.6,0,20.8,0,20.7,0
2004/11/1 17:45,17.3,0,74,0,22.2,0,68.7,0,20.8,0,20.7,0
2004/11/1 18:00,17.2,0,74,0,22.5,0,67.3,0,20.9,0,20.6,0
2004/11/1 18:15,17.2,0,74,0,22.2,0,68.1,0,20.9,0,20.6,0
2004/11/1 18:30,17.2,0,73,0,22.1,0,67.2,0,20.9,0,20.6,0
2004/11/1 18:45,17,0,74,0,22.1,0,66.7,0,20.9,0,20.6,0
2004/11/1 19:00,17,0,72,0,22.1,0,66.4,0,20.9,0,20.6,0
2004/11/1 19:15,17,0,72,0,22,0,66.5,0,21,0,20.6,0
2004/11/1 19:30,16.9,0,72,0,22.1,0,66.8,0,20.9,0,20.6,0
2004/11/1 19:45,16.9,0,72,0,22.1,0,67.6,0,20.9,0,20.6,0
2004/11/1 20:00,16.9,0,73,0,22.1,0,68.2,0,20.9,0,20.6,0
2004/11/1 20:15,16.7,0,73,0,22.2,0,69.5,0,20.9,0,20.6,0
2004/11/1 20:30,16.9,0,72,0,22.3,0,70.6,0,20.9,0,20.6,0
2004/11/1 20:45,17,0,72,0,22.3,0,69.9,0,20.9,0,20.6,0
2004/11/1 21:00,17,0,72,0,22.4,0,69.3,0,20.8,0,20.6,0
2004/11/1 21:15,17,0,71,0,22.4,0,69.1,0,20.9,0,20.6,0
2004/11/1 21:30,17,0,71,0,22.4,0,68.7,0,20.8,0,20.6,0
2004/11/1 21:45,16.8,0,73,0,22.6,0,68.1,0,20.8,0,20.6,0
2004/11/1 22:00,16.6,0,76,0,22.7,0,67.5,0,20.8,0,20.2,0
2004/11/1 22:15,16.5,0,78,0,22.6,0,68,0,20.8,0,20.3,0
2004/11/1 22:30,16.3,0,79,0,22.6,0,68,0,20.7,0,20.3,0
2004/11/1 22:45,16.2,0,79,0,22.5,0,67.9,0,20.7,0,20.3,0
2004/11/1 23:00,16.5,0,75,0,22.5,0,67.9,0,20.7,0,20.3,0
2004/11/1 23:15,16.7,0,74,0,22.5,0,67.7,0,20.7,0,20.3,0
2004/11/1 23:30,16.7,0,74,0,22.4,0,67.5,0,20.7,0,20.3,0
2004/11/1 23:45,16.6,0,75,0,22.5,0,67.5,0,20.7,0,20.3,0
2004/11/2 0:00,16.5,0,76,0,22.4,0,67.3,0,20.7,0,20.3,0
2004/11/2 0:15,16.5,0,77,0,22.4,0,66.9,0,20.7,0,20.2,0
2004/11/2 0:30,16.5,0,77,0,22.2,0,66.4,0,20.7,0,20.2,0
2004/11/2 0:45,16.5,0,78,0,22.2,0,66,0,20.7,0,20.2,0
2004/11/2 1:00,16.5,0,79,0,22.2,0,66.4,0,20.7,0,20.7,0
2004/11/2 1:15,16.7,0,79,0,22.1,0,66.8,0,20.6,0,20.7,0
2004/11/2 1:30,16.6,0,80,0,22.1,0,67,0,20.7,0,20.7,0
2004/11/2 1:45,16.6,0,82,0,22,0,67,0,20.7,0,20.7,0
2004/11/2 2:00,16.7,0,81,0,22,0,67.3,0,20.7,0,20.7,0
2004/11/2 2:15,16.5,0,81,0,21.9,0,67.6,0,20.7,0,20.4,0
2004/11/2 2:30,16.6,0,80,0,21.9,0,67.9,0,20.6,0,20.5,0
2004/11/2 2:45,16.6,0,81,0,21.8,0,68.1,0,20.6,0,20.5,0
2004/11/2 3:00,16.7,0,82,0,21.8,0,68.7,0,20.6,0,20.5,0
2004/11/2 3:15,16.8,0,82,0,21.7,0,68.7,0,20.6,0,20.5,0
2004/11/2 3:30,16.9,0,82,0,21.7,0,69.3,0,20.6,0,20.5,0
2004/11/2 3:45,17.1,0,81,0,21.6,0,69,0,20.6,0,20.5,0
2004/11/2 4:00,17.5,0,79,0,21.6,0,69.4,0,20.6,0,20.5,0
2004/11/2 4:15,17.9,0,77,0,21.5,0,69.3,0,20.6,0,20.5,0
2004/11/2 4:30,18.1,0,76,0,21.5,0,69.2,0,20.5,0,20.5,0
2004/11/2 4:45,18.2,0,75,0,21.4,0,69.7,0,20.5,0,20.5,0
2004/11/2 5:00,18.8,0,72,0,21.4,0,69.5,0,20.5,0,20.3,0
2004/11/2 5:15,19.6,0,67,0,21.3,0,69.6,0,20.5,0,20.4,0
2004/11/2 5:30,19.7,0,62,0,21.3,0,69.8,0,20.5,0,20.4,0
2004/11/2 5:45,20,0,58,0,21.2,0,69.8,0,20.5,0,20.4,0
2004/11/2 6:00,20.5,0,56,0,21.2,0,69.8,0,20.4,0,20.2,0
2004/11/2 6:15,20.3,0,53,0,21.2,0,69.8,0,20.4,0,20.2,0
2004/11/2 6:30,20.9,0,51,0,21.1,0,69.9,0,20.4,0,20.2,0
2004/11/2 6:45,20.6,0,49,0,21.1,0,70,0,20.4,0,20.2,0
2004/11/2 7:00,20,0,52,0,21,0,70.2,0,20.4,0,20.2,0
2004/11/2 7:15,20.5,0,49,0,21,0,70.2,0,20.4,0,20.1,0
2004/11/2 7:30,20.5,0,48,0,21,0,70.3,0,20.4,0,20.1,0
2004/11/2 7:45,21.3,0,46,0,20.8,0,70.2,0,20.4,0,20.2,0
2004/11/2 8:00,21.6,0,45,0,20.9,0,72.9,0,20.3,0,20.2,0
2004/11/2 8:15,21.4,0,42,0,21,0,73.6,0,20.4,0,20.2,0
2004/11/2 8:30,20.8,0,40,0,21.1,0,74.6,0,20.3,0,20.2,0
2004/11/2 8:45,20.8,0,42,0,21.2,0,74.1,0,20.3,0,20.2,0
2004/11/2 9:00,20.2,0,41,0,21.2,0,73.3,0,20.3,0,20.2,0
2004/11/2 9:15,20.5,0,43,0,21.3,0,72.8,0,20.3,0,20.2,0
2004/11/2 9:30,21.3,0,42,0,21.3,0,73.9,0,20.2,0,20.3,0
2004/11/2 9:45,20,0,49,0,21.3,0,71.6,0,20.3,0,20.4,0
2004/11/2 10:00,19.5,0,55,0,21.4,0,72.8,0,20.3,0,20.4,0
2004/11/2 10:15,20.2,0,51,0,21.5,0,72.6,0,20.3,0,20.5,0
2004/11/2 10:30,20.7,0,46,0,21.5,0,69.6,0,20.4,0,20.3,0
2004/11/2 10:45,20.7,0,45,0,21.5,0,64.9,0,20.5,0,20.3,0
2004/11/2 11:00,20.5,0,45,0,21.4,0,64,0,20.6,0,20.3,0
2004/11/2 11:15,20.8,0,47,0,21.4,0,64.2,0,20.7,0,20.3,0
2004/11/2 11:30,20.2,0,49,0,21.4,0,62,0,20.8,0,20.4,0
2004/11/2 11:45,20.4,0,49,0,21.4,0,61,0,20.9,0,20.4,0
2004/11/2 12:00,19.9,0,47,0,21.5,0,60.4,0,20.8,0,20.3,0
2004/11/2 12:15,19.7,0,48,0,21.5,0,57.3,0,20.8,0,20.3,0
2004/11/2 12:30,19.6,0,49,0,21.5,0,57.7,0,20.9,0,20.2,0
2004/11/2 12:45,19.5,0,50,0,21.5,0,52.3,0,21,0,20.3,0
2004/11/2 13:00,19.4,0,51,0,21.6,0,56.4,0,21.1,0,20.3,0
2004/11/2 13:15,19,0,50,0,21.5,0,55,0,21.1,0,20.3,0
2004/11/2 13:30,18.6,0,49,0,21.6,0,55.6,0,21,0,20.3,0
2004/11/2 13:45,18.4,0,51,0,21.7,0,55.6,0,21,0,20.3,0
2004/11/2 14:00,17.9,0,52,0,21.6,0,57.8,0,20.9,0,20.5,0
2004/11/2 14:15,17.7,0,53,0,21.6,0,59.2,0,20.9,0,20.5,0
2004/11/2 14:30,17.7,0,54,0,21.6,0,60.8,0,20.9,0,20.3,0
2004/11/2 14:45,17.7,0,55,0,21.8,0,60.5,0,20.9,0,20.3,0
2004/11/2 15:00,17.7,0,56,0,21.8,0,61.4,0,20.8,0,20.3,0
2004/11/2 15:15,17.5,0,57,0,21.9,0,61.3,0,20.7,0,20.4,0
2004/11/2 15:30,17.4,0,58,0,21.9,0,61.5,0,20.7,0,20.4,0
2004/11/2 15:45,17.2,0,59,0,21.9,0,60.5,0,20.7,0,20.4,0
2004/11/2 16:00,16.3,0,65,0,21.9,0,60.4,0,20.7,0,20.4,0
2004/11/2 16:15,16.4,0,67,0,21.9,0,61.3,0,20.8,0,20.4,0
2004/11/2 16:30,16.6,0,66,0,21.9,0,61.2,0,20.8,0,20.4,0
2004/11/2 16:45,16.5,0,66,0,21.9,0,61.5,0,20.8,0,20.5,0
2004/11/2 17:00,16.3,0,66,0,21.9,0,61.5,0,20.8,0,20.5,0
2004/11/2 17:15,15.6,0,68,0,21.8,0,60.9,0,20.9,0,20.5,0
2004/11/2 17:30,15.7,0,68,0,21.8,0,61.4,0,20.9,0,20.2,0
2004/11/2 17:45,15.7,0,68,0,21.8,0,61.5,0,20.9,0,20.2,0
2004/11/2 18:00,15.8,0,68,0,21.8,0,62.1,0,20.9,0,20.2,0
2004/11/2 18:15,15.9,0,67,0,21.9,0,61.8,0,20.9,0,20.3,0
2004/11/2 18:30,15.8,0,64,0,22.1,0,62.6,0,20.9,0,20.3,0
2004/11/2 18:45,16.1,0,61,0,22.3,0,62.4,0,20.9,0,20.3,0
2004/11/2 19:00,16,0,59,0,22.4,0,62.7,0,20.9,0,20.4,0
2004/11/2 19:15,16.1,0,59,0,22.4,0,61.8,0,20.9,0,20.4,0
2004/11/2 19:30,15.8,0,59,0,22.4,0,61.6,0,20.9,0,20.2,0
2004/11/2 19:45,15.7,0,60,0,22.5,0,62.1,0,20.9,0,20.2,0
2004/11/2 20:00,15.7,0,61,0,22.5,0,61.4,0,20.8,0,20.5,0
2004/11/2 20:15,15.8,0,59,0,22.5,0,61.1,0,20.8,0,20.5,0
2004/11/2 20:30,15.8,0,57,0,22.7,0,65.9,0,20.8,0,20.5,0
2004/11/2 20:45,15.4,0,57,0,22.8,0,64.8,0,20.8,0,20.5,0
2004/11/2 21:00,15.3,0,53,0,22.9,0,64.9,0,20.9,0,20.5,0
2004/11/2 21:15,15.3,0,51,0,22.8,0,65.2,0,21.1,0,20.5,0
2004/11/2 21:30,15.1,0,52,0,22.8,0,65.4,0,21.1,0,20.5,0
2004/11/2 21:45,15,0,52,0,22.8,0,64.7,0,21.1,0,20.5,0
2004/11/2 22:00,14.8,0,54,0,22.7,0,64.5,0,21,0,20.5,0
2004/11/2 22:15,14.4,0,57,0,22.6,0,63.9,0,21,0,20.5,0
2004/11/2 22:30,14.5,0,59,0,22.5,0,63.9,0,20.9,0,20.5,0
2004/11/2 22:45,14.6,0,58,0,22.5,0,64.9,0,20.9,0,20.5,0
2004/11/2 23:00,14.4,0,59,0,22.4,0,65.1,0,20.9,0,20.5,0
2004/11/2 23:15,14.5,0,60,0,22.4,0,65.3,0,20.9,0,20.5,0
2004/11/2 23:30,14.4,0,60,0,22.4,0,65.3,0,20.8,0,20.5,0
2004/11/2 23:45,14.4,0,60,0,22.4,0,65.4,0,20.8,0,20.5,0
2004/11/3 0:00,14.2,0,59,0,22.3,0,65.3,0,20.8,0,20.5,0
2004/11/3 0:15,14.2,0,59,0,22.3,0,65.3,0,20.8,0,20.5,0
2004/11/3 0:30,13.8,0,62,0,22.3,0,65.2,0,20.8,0,20.5,0
2004/11/3 0:45,13.6,0,62,0,22.2,0,64.3,0,20.7,0,20.4,0
2004/11/3 1:00,13.6,0,61,0,22.2,0,64.5,0,20.7,0,20.4,0
2004/11/3 1:15,13.5,0,62,0,22.1,0,64.5,0,20.7,0,20.4,0
2004/11/3 1:30,13.4,0,63,0,22.1,0,64.4,0,20.7,0,20.4,0
2004/11/3 1:45,13,0,65,0,22,0,64.2,0,20.7,0,20.4,0
2004/11/3 2:00,13.2,0,64,0,22,0,63.9,0,20.7,0,20.1,0
2004/11/3 2:15,13.3,0,62,0,21.9,0,63.9,0,20.7,0,20.1,0
2004/11/3 2:30,13.7,0,60,0,21.8,0,64,0,20.7,0,20.1,0
2004/11/3 2:45,13.6,0,62,0,21.7,0,64,0,20.6,0,20.1,0
2004/11/3 3:00,13.9,0,60,0,21.6,0,63.8,0,20.6,0,20.1,0
2004/11/3 3:15,14,0,60,0,21.6,0,63.8,0,20.6,0,20.1,0
2004/11/3 3:30,14,0,61,0,21.5,0,63.9,0,20.5,0,20.1,0
2004/11/3 3:45,14.2,0,60,0,21.4,0,63.8,0,20.5,0,20.1,0
2004/11/3 4:00,14.5,0,58,0,21.4,0,63.8,0,20.5,0,20.1,0
2004/11/3 4:15,14.4,0,62,0,21.3,0,63.6,0,20.4,0,20.1,0
2004/11/3 4:30,14.6,0,65,0,21.2,0,63.7,0,20.4,0,20.1,0
2004/11/3 4:45,15.1,0,65,0,21.1,0,63.8,0,20.4,0,20.1,0
2004/11/3 5:00,16.4,0,59,0,21,0,63.6,0,20.3,0,20.1,0
2004/11/3 5:15,17.8,0,53,0,20.9,0,63.2,0,20.3,0,20.1,0
2004/11/3 5:30,17.8,0,51,0,20.9,0,62.8,0,20.2,0,19.9,0
2004/11/3 5:45,17.4,0,52,0,20.8,0,63.2,0,20.2,0,19.9,0
2004/11/3 6:00,17.1,0,54,0,20.7,0,63.2,0,20.1,0,19.9,0
2004/11/3 6:15,16.7,0,56,0,20.6,0,63.3,0,20.1,0,19.9,0
2004/11/3 6:30,16.6,0,55,0,20.5,0,63.2,0,20,0,19.8,0
2004/11/3 6:45,17.6,0,55,0,20.5,0,63.5,0,20,0,20,0
2004/11/3 7:00,18.3,0,51,0,20.4,0,63.7,0,19.9,0,20,0
2004/11/3 7:15,19,0,48,0,20.4,0,64,0,19.9,0,20,0
2004/11/3 7:30,19.6,0,46,0,20.2,0,62.5,0,19.9,0,20,0
2004/11/3 7:45,19.1,0,45,0,20.1,0,60.4,0,20,0,19.9,0
2004/11/3 8:00,18.9,0,45,0,19.9,0,60.7,0,20.1,0,19.9,0
2004/11/3 8:15,18.6,0,47,0,19.8,0,58.9,0,19.5,0,19.9,0
2004/11/3 8:30,17.8,0,56,0,19.9,0,61.2,0,18.9,0,19.9,0
2004/11/3 8:45,18.3,0,57,0,19.9,0,63.3,0,18.3,0,19.9,0
2004/11/3 9:00,17.9,0,58,0,20,0,65.9,0,18.1,0,19.9,0
2004/11/3 9:15,18.1,0,55,0,20,0,66.1,0,18,0,20,0
2004/11/3 9:30,18,0,56,0,20.1,0,65.6,0,17.8,0,20.5,0
2004/11/3 9:45,17.8,0,54,0,20.2,0,66.3,0,17.8,0,20.5,0
2004/11/3 10:00,18.5,0,50,0,20.4,0,65.8,0,17.9,0,20.5,0
2004/11/3 10:15,18.5,0,50,0,20.7,0,63.3,0,18,0,20.4,0
2004/11/3 10:30,18.6,0,50,0,20.9,0,63.1,0,18.1,0,20.4,0
2004/11/3 10:45,18.4,0,52,0,20.9,0,63.6,0,18.1,0,20.3,0
2004/11/3 11:00,18.1,0,53,0,20.9,0,63.3,0,18.2,0,20.3,0
2004/11/3 11:15,18.3,0,52,0,20.9,0,63.2,0,18.1,0,20.3,0
2004/11/3 11:30,18,0,54,0,20.9,0,63.9,0,18.1,0,20.3,0
2004/11/3 11:45,18.1,0,53,0,20.9,0,64.2,0,18.1,0,20.3,0
2004/11/3 12:00,18.1,0,53,0,20.9,0,63.6,0,18.2,0,20.3,0
2004/11/3 12:15,17.6,0,53,0,20.7,0,57.6,0,18.4,0,20.3,0
2004/11/3 12:30,17.3,0,54,0,20.6,0,55.6,0,18.5,0,20.2,0
2004/11/3 12:45,17.4,0,55,0,20.8,0,59.4,0,18.6,0,20.4,0
2004/11/3 13:00,17.1,0,56,0,20.9,0,60.9,0,18.6,0,20.4,0
2004/11/3 13:15,16.9,0,55,0,20.6,0,59.4,0,18.6,0,20.2,0
2004/11/3 13:30,16.8,0,54,0,20.5,0,59,0,18.6,0,20.2,0
2004/11/3 13:45,16.6,0,53,0,20.4,0,59.1,0,18.6,0,20.2,0
2004/11/3 14:00,16.5,0,53,0,20.5,0,63,0,18.6,0,20.2,0
2004/11/3 14:15,16.5,0,55,0,20.6,0,60.7,0,18.7,0,20.2,0
2004/11/3 14:30,16.3,0,56,0,20.6,0,60,0,18.7,0,20.2,0
2004/11/3 14:45,16.2,0,55,0,20.6,0,59.8,0,18.7,0,20.3,0
2004/11/3 15:00,16.1,0,54,0,20.6,0,60,0,18.7,0,20.3,0
2004/11/3 15:15,15.7,0,55,0,20.6,0,60.9,0,18.8,0,20,0
2004/11/3 15:30,15.6,0,56,0,20.6,0,61.6,0,18.8,0,20,0
2004/11/3 15:45,15.3,0,60,0,20.6,0,62,0,18.8,0,20.1,0
2004/11/3 16:00,15.5,0,61,0,20.6,0,62.3,0,18.9,0,20.1,0
2004/11/3 16:15,15.3,0,61,0,20.6,0,62.3,0,18.9,0,20,0
2004/11/3 16:30,15.4,0,61,0,20.6,0,62.3,0,18.9,0,20,0
2004/11/3 16:45,15.2,0,62,0,20.5,0,62.2,0,19,0,20,0
2004/11/3 17:00,15,0,63,0,20.5,0,62.3,0,19,0,20,0
2004/11/3 17:15,15.1,0,63,0,20.6,0,62.6,0,19,0,20,0
2004/11/3 17:30,15.1,0,62,0,20.6,0,62.8,0,19.1,0,20,0
2004/11/3 17:45,15.1,0,63,0,20.6,0,62.6,0,19.1,0,20,0
2004/11/3 18:00,14.9,0,63,0,20.7,0,62.8,0,19.1,0,20,0
2004/11/3 18:15,14.7,0,64,0,20.7,0,62.2,0,19.1,0,20,0
2004/11/3 18:30,14.5,0,64,0,20.6,0,61.8,0,19.1,0,20,0
2004/11/3 18:45,14.1,0,66,0,20.6,0,61.8,0,19.1,0,20,0
2004/11/3 19:00,14.3,0,66,0,20.6,0,62,0,19.2,0,20.1,0
2004/11/3 19:15,14.3,0,66,0,20.6,0,61.5,0,19.2,0,20.1,0
2004/11/3 19:30,14,0,68,0,20.6,0,62.2,0,19.2,0,20.1,0
2004/11/3 19:45,13.9,0,68,0,20.7,0,64.9,0,19.2,0,20.1,0
2004/11/3 20:00,13.9,0,67,0,20.8,0,67.3,0,19.2,0,20,0
2004/11/3 20:15,14,0,66,0,20.8,0,66.2,0,19.2,0,20,0
2004/11/3 20:30,13.8,0,67,0,20.9,0,63.5,0,19.2,0,20,0
2004/11/3 20:45,13.9,0,67,0,20.9,0,62.2,0,19.2,0,20,0
2004/11/3 21:00,13.8,0,67,0,20.9,0,61.9,0,19.2,0,20,0
2004/11/3 21:15,13.5,0,69,0,20.9,0,62.8,0,19.1,0,19.9,0
2004/11/3 21:30,13.3,0,70,0,20.8,0,61.5,0,19.1,0,19.9,0
2004/11/3 21:45,12.8,0,72,0,20.7,0,60,0,19.2,0,19.9,0
2004/11/3 22:00,13.2,0,71,0,20.7,0,59.6,0,19.2,0,19.9,0
2004/11/3 22:15,13.2,0,71,0,20.7,0,61.2,0,19.2,0,19.9,0
2004/11/3 22:30,12.9,0,72,0,20.7,0,62.8,0,19.2,0,19.8,0
2004/11/3 22:45,12.9,0,73,0,20.7,0,63.2,0,19.2,0,19.8,0
2004/11/3 23:00,13.1,0,73,0,20.7,0,63.4,0,19.1,0,19.8,0
2004/11/3 23:15,12.9,0,72,0,20.6,0,63.4,0,19.1,0,19.8,0
2004/11/3 23:30,12.6,0,74,0,20.6,0,63.2,0,19.1,0,19.8,0
2004/11/3 23:45,12.5,0,75,0,20.5,0,63.2,0,19.1,0,20.1,0
2004/11/4 0:00,12.4,0,75,0,20.5,0,63,0,19.1,0,20.1,0
2004/11/4 0:15,12.3,0,76,0,20.5,0,62.8,0,19.1,0,20.1,0
2004/11/4 0:30,12.1,0,77,0,20.4,0,62.6,0,19.1,0,20,0
2004/11/4 0:45,12.1,0,77,0,20.4,0,62.8,0,19.1,0,20,0
2004/11/4 1:00,12.3,0,76,0,20.4,0,63.1,0,19.1,0,19.8,0
2004/11/4 1:15,12.2,0,76,0,20.4,0,63.2,0,19.1,0,19.8,0
2004/11/4 1:30,12,0,77,0,20.3,0,62.8,0,19,0,19.8,0
2004/11/4 1:45,12.1,0,77,0,20.3,0,62.6,0,19,0,19.7,0
2004/11/4 2:00,12.1,0,77,0,20.2,0,62.6,0,19,0,19.7,0
2004/11/4 2:15,12.1,0,77,0,20.2,0,62.4,0,19,0,19.7,0
2004/11/4 2:30,12,0,77,0,20.1,0,62.1,0,19,0,19.7,0
2004/11/4 2:45,11.9,0,78,0,20,0,62,0,19,0,19.7,0
2004/11/4 3:00,11.7,0,79,0,19.9,0,61.8,0,19,0,19.7,0
2004/11/4 3:15,11.7,0,79,0,19.8,0,61.6,0,18.9,0,19.8,0
2004/11/4 3:30,11.9,0,79,0,19.7,0,61.8,0,18.9,0,19.8,0
2004/11/4 3:45,12,0,78,0,19.7,0,62.1,0,18.9,0,19.8,0
2004/11/4 4:00,12.1,0,78,0,19.6,0,62.5,0,18.9,0,19.7,0
2004/11/4 4:15,12.4,0,77,0,19.5,0,63,0,18.8,0,19.7,0
2004/11/4 4:30,13,0,74,0,19.4,0,62.9,0,18.8,0,19.7,0
2004/11/4 4:45,13.6,0,72,0,19.3,0,63,0,18.7,0,19.6,0
2004/11/4 5:00,14.3,0,69,0,19.3,0,63.1,0,18.7,0,19.6,0
2004/11/4 5:15,15.1,0,66,0,19.2,0,62.9,0,18.6,0,19.6,0
2004/11/4 5:30,16,0,62,0,19.1,0,62.7,0,18.6,0,19.5,0
2004/11/4 5:45,16.7,0,58,0,19,0,62.6,0,18.6,0,19.5,0
2004/11/4 6:00,16.9,0,55,0,19,0,62.5,0,18.5,0,19.4,0
2004/11/4 6:15,17.4,0,53,0,18.9,0,62.4,0,18.4,0,19.4,0
2004/11/4 6:30,17.8,0,51,0,18.8,0,62.3,0,18.4,0,19.3,0
2004/11/4 6:45,18.2,0,51,0,18.7,0,62.2,0,18.3,0,19.3,0
2004/11/4 7:00,18.7,0,50,0,18.7,0,62.3,0,18.3,0,19.2,0
2004/11/4 7:15,19,0,49,0,18.6,0,62.4,0,18.2,0,19.2,0
2004/11/4 7:30,19,0,47,0,17.9,0,60.8,0,18.1,0,19.4,0
2004/11/4 7:45,19.3,0,46,0,17.9,0,62.3,0,18.1,0,19.3,0
2004/11/4 8:00,19.5,0,45,0,18,0,63.6,0,18,0,19.3,0
2004/11/4 8:15,19.8,0,43,0,17.9,0,63.5,0,16.9,0,19.2,0
2004/11/4 8:30,19.6,0,39,0,18,0,64.3,0,15.9,0,19.2,0
2004/11/4 8:45,20,0,40,0,18,0,64.3,0,15.4,0,19.4,0
2004/11/4 9:00,20.1,0,39,0,18.1,0,64.2,0,15,0,19.4,0
2004/11/4 9:15,19.6,0,37,0,18.2,0,64.2,0,14.8,0,19.3,0
2004/11/4 9:30,19.6,0,37,0,18.2,0,64.1,0,14.8,0,19.3,0
2004/11/4 9:45,20.1,0,38,0,18.2,0,65,0,14.9,0,19.3,0
2004/11/4 10:00,20,0,32,0,18.3,0,63.8,0,15.1,0,19.2,0
2004/11/4 10:15,20.2,0,34,0,18.3,0,64.6,0,15.4,0,19.5,0
2004/11/4 10:30,20.3,0,33,0,18.4,0,64.8,0,15.6,0,19.5,0
2004/11/4 10:45,20.6,0,33,0,18.4,0,62.9,0,15.9,0,19.4,0
2004/11/4 11:00,20.5,0,35,0,18.5,0,62.1,0,16.1,0,19.7,0
2004/11/4 11:15,20.6,0,36,0,18.6,0,63,0,16.3,0,19.8,0
2004/11/4 11:30,20.4,0,36,0,18.7,0,62.7,0,16.5,0,19.8,0
2004/11/4 11:45,20.4,0,37,0,18.8,0,61.9,0,16.7,0,19.8,0
2004/11/4 12:00,20.4,0,37,0,19,0,61.2,0,17,0,19.8,0
2004/11/4 12:15,20.2,0,37,0,19.1,0,60.9,0,17.3,0,19.8,0
2004/11/4 12:30,19.7,0,38,0,19.2,0,60.7,0,17.5,0,19.8,0
2004/11/4 12:45,19.6,0,40,0,19.3,0,59,0,17.8,0,19.7,0
2004/11/4 13:00,19.1,0,41,0,19.5,0,58.8,0,18,0,19.7,0
2004/11/4 13:15,18.7,0,43,0,19.7,0,58.7,0,18.2,0,19.7,0
2004/11/4 13:30,18.2,0,45,0,19.8,0,58.7,0,18.4,0,19.9,0
2004/11/4 13:45,17.7,0,49,0,20,0,58.8,0,18.5,0,19.9,0
2004/11/4 14:00,17.2,0,52,0,20.1,0,58.4,0,18.7,0,19.9,0
2004/11/4 14:15,16.7,0,54,0,20.2,0,58.3,0,18.8,0,19.7,0
2004/11/4 14:30,16.5,0,54,0,20.3,0,57.5,0,18.8,0,19.7,0
2004/11/4 14:45,16.3,0,55,0,20.4,0,57.4,0,18.9,0,19.7,0
2004/11/4 15:00,16.2,0,56,0,20.4,0,56.9,0,18.9,0,19.7,0
2004/11/4 15:15,16.1,0,58,0,20.4,0,56.3,0,18.9,0,19.7,0
2004/11/4 15:30,15.9,0,60,0,20.5,0,55.8,0,18.9,0,19.7,0
2004/11/4 15:45,15.7,0,61,0,20.5,0,55.8,0,18.9,0,19.7,0
2004/11/4 16:00,15.8,0,62,0,20.5,0,55.8,0,19,0,19.7,0
2004/11/4 16:15,15.7,0,62,0,20.4,0,55.7,0,19,0,19.7,0
2004/11/4 16:30,15.3,0,64,0,20.4,0,52.5,0,19,0,19.7,0
2004/11/4 16:45,15.3,0,65,0,20.4,0,54.8,0,19,0,19.5,0
2004/11/4 17:00,14.7,0,68,0,20.4,0,54.3,0,19,0,19.5,0
2004/11/4 17:15,14.9,0,67,0,20.4,0,55.2,0,19.1,0,19.5,0
2004/11/4 17:30,14.9,0,67,0,20.4,0,54.7,0,19.1,0,19.5,0
2004/11/4 17:45,14.7,0,68,0,20.3,0,55.2,0,19.1,0,19.6,0
2004/11/4 18:00,14.5,0,69,0,20.4,0,56.2,0,19.1,0,19.6,0
2004/11/4 18:15,14.1,0,71,0,20.6,0,56.7,0,19.1,0,19.6,0
2004/11/4 18:30,14,0,71,0,20.8,0,57,0,19.1,0,19.6,0
2004/11/4 18:45,14,0,72,0,20.9,0,56.5,0,19.1,0,19.6,0
2004/11/4 19:00,13.8,0,73,0,20.9,0,56.8,0,19.1,0,19.8,0
2004/11/4 19:15,13.7,0,74,0,20.8,0,57.2,0,19.1,0,19.8,0
2004/11/4 19:30,13.7,0,74,0,20.9,0,57.9,0,19.1,0,19.8,0
2004/11/4 19:45,13.5,0,74,0,21.1,0,59,0,19.1,0,19.8,0
2004/11/4 20:00,13.3,0,76,0,21.4,0,59.7,0,19.1,0,19.8,0
2004/11/4 20:15,13.2,0,77,0,21.6,0,62,0,19,0,19.8,0
2004/11/4 20:30,13.2,0,77,0,21.9,0,63.6,0,19,0,19.8,0
2004/11/4 20:45,13,0,78,0,22,0,63,0,19,0,19.8,0
2004/11/4 21:00,13.1,0,77,0,22,0,62.1,0,19,0,19.7,0
2004/11/4 21:15,12.7,0,78,0,22,0,61.4,0,19,0,19.8,0
2004/11/4 21:30,12.9,0,79,0,22,0,59.8,0,19,0,19.8,0
2004/11/4 21:45,12.9,0,78,0,21.9,0,60.4,0,19.1,0,19.6,0
2004/11/4 22:00,12.8,0,78,0,21.8,0,61.1,0,19.1,0,19.6,0
2004/11/4 22:15,12.6,0,78,0,21.7,0,61.2,0,19.1,0,19.6,0
2004/11/4 22:30,12.2,0,81,0,21.6,0,61.4,0,19,0,19.6,0
2004/11/4 22:45,12.4,0,81,0,21.5,0,61.4,0,19,0,19.6,0
2004/11/4 23:00,12.3,0,80,0,21.3,0,60.8,0,19,0,19.6,0
2004/11/4 23:15,12.3,0,81,0,21.2,0,61,0,19,0,19.5,0
2004/11/4 23:30,12.2,0,81,0,21.1,0,61,0,19,0,19.5,0
2004/11/4 23:45,12.3,0,82,0,21.1,0,61.1,0,19,0,19.5,0
2004/11/5 0:00,12.6,0,80,0,21,0,61.3,0,19,0,19.5,0
2004/11/5 0:15,12.3,0,81,0,20.9,0,61.6,0,19,0,19.5,0
2004/11/5 0:30,12.2,0,81,0,20.9,0,61.7,0,19,0,19.5,0
2004/11/5 0:45,12.4,0,80,0,20.8,0,61.8,0,19,0,19.4,0
2004/11/5 1:00,12.3,0,81,0,20.8,0,61.8,0,18.9,0,19.4,0
2004/11/5 1:15,12.4,0,80,0,20.7,0,61.9,0,18.9,0,19.4,0
2004/11/5 1:30,12.2,0,80,0,20.7,0,61.9,0,18.9,0,19.4,0
2004/11/5 1:45,12.1,0,81,0,20.6,0,61.9,0,18.9,0,19.4,0
2004/11/5 2:00,12,0,82,0,20.5,0,62.1,0,18.9,0,19.4,0
2004/11/5 2:15,12.1,0,81,0,20.4,0,62.4,0,18.9,0,19.4,0
2004/11/5 2:30,12.1,0,81,0,20.4,0,62.3,0,18.9,0,19.4,0
2004/11/5 2:45,12.1,0,81,0,20.2,0,62.1,0,18.8,0,19.3,0
2004/11/5 3:00,12.4,0,79,0,20.2,0,62,0,18.8,0,19.3,0
2004/11/5 3:15,12.6,0,77,0,20.1,0,62.2,0,18.8,0,19.3,0
2004/11/5 3:30,12.8,0,76,0,20,0,62.6,0,18.8,0,19.3,0
2004/11/5 3:45,12.8,0,75,0,19.9,0,62.7,0,18.8,0,19.3,0
2004/11/5 4:00,13,0,75,0,19.8,0,62.9,0,18.7,0,19.2,0
2004/11/5 4:15,13.2,0,74,0,19.8,0,63,0,18.7,0,19.2,0
2004/11/5 4:30,13.8,0,72,0,19.7,0,63,0,18.7,0,19.2,0
2004/11/5 4:45,14.2,0,70,0,19.6,0,63.1,0,18.6,0,19.9,0
2004/11/5 5:00,14.9,0,67,0,19.6,0,62.7,0,18.6,0,19.9,0
2004/11/5 5:15,15.3,0,64,0,19.5,0,62.6,0,18.6,0,19.8,0
2004/11/5 5:30,16.1,0,61,0,19.4,0,62.5,0,18.6,0,19.8,0
2004/11/5 5:45,16.7,0,59,0,19.4,0,62.5,0,18.5,0,19.8,0
2004/11/5 6:00,17.3,0,57,0,19.3,0,62.5,0,18.5,0,19.8,0
2004/11/5 6:15,18.3,0,54,0,19.2,0,62.4,0,18.5,0,19.7,0
2004/11/5 6:30,18.4,0,54,0,19.2,0,62.6,0,18.4,0,19.7,0
2004/11/5 6:45,18.9,0,52,0,19.1,0,62.7,0,18.4,0,19.3,0
2004/11/5 7:00,19.4,0,50,0,19.1,0,62.7,0,18.3,0,19.5,0
2004/11/5 7:15,20,0,48,0,19,0,62.7,0,18.3,0,19.5,0
2004/11/5 7:30,20,0,47,0,18.9,0,63.1,0,18.3,0,19.6,0
2004/11/5 7:45,20.1,0,47,0,18.8,0,64.3,0,18.3,0,20.1,0
2004/11/5 8:00,20.1,0,46,0,18.9,0,65.6,0,18.2,0,20,0
2004/11/5 8:15,20.4,0,44,0,18.9,0,64.9,0,17.3,0,19.7,0
2004/11/5 8:30,20.8,0,44,0,18.9,0,64.6,0,16.7,0,19.7,0
2004/11/5 8:45,20.8,0,44,0,18.9,0,64.4,0,16.2,0,19.7,0
2004/11/5 9:00,21.1,0,42,0,19,0,63.9,0,15.9,0,19.7,0
2004/11/5 9:15,21.4,0,41,0,19.1,0,63.5,0,15.8,0,19.6,0
2004/11/5 9:30,21.6,0,41,0,19.1,0,63.8,0,15.7,0,19.6,0
2004/11/5 9:45,21.8,0,40,0,19.2,0,64.9,0,15.8,0,19.6,0
2004/11/5 10:00,22.1,0,39,0,19.2,0,64.6,0,15.9,0,19.6,0
2004/11/5 10:15,21.6,0,41,0,19.3,0,64,0,16,0,19.8,0
2004/11/5 10:30,21.1,0,43,0,19.3,0,64.7,0,16.3,0,19.8,0
2004/11/5 10:45,21,0,43,0,19.3,0,63.6,0,16.5,0,19.8,0
2004/11/5 11:00,21.7,0,38,0,19.4,0,64.2,0,16.8,0,19.7,0